TimeCST,TemperatureF,Dew PointF,Humidity,Sea Level PressureIn,VisibilityMPH,Wind Direction,Wind SpeedMPH,Gust SpeedMPH,PrecipitationIn,Events,Conditions,WindDirDegrees,DateUTC
12:15 AM,26.6,26.6,100,30.12,2.0,East,3.5,-,N/A,,Overcast,90,2013-02-07 06:15:00
12:35 AM,26.6,26.6,100,30.11,1.8,ENE,3.5,-,N/A,,Overcast,60,2013-02-07 06:35:00
12:55 AM,26.6,26.6,100,30.11,1.8,NE,4.6,-,N/A,,Overcast,40,2013-02-07 06:55:00
1:15 AM,28.4,26.6,93,30.11,1.5,ENE,6.9,-,N/A,,Overcast,60,2013-02-07 07:15:00
1:35 AM,28.4,26.6,93,30.10,1.8,ENE,6.9,-,N/A,,Overcast,70,2013-02-07 07:35:00
1:55 AM,28.4,28.4,100,30.09,2.0,ENE,6.9,-,N/A,,Overcast,70,2013-02-07 07:55:00
2:15 AM,30.2,28.4,93,30.09,2.0,ENE,6.9,-,N/A,,Overcast,70,2013-02-07 08:15:00
2:35 AM,30.2,28.4,93,30.09,2.5,ENE,5.8,-,N/A,,Overcast,70,2013-02-07 08:35:00
2:55 AM,30.2,30.2,100,30.09,2.5,ENE,4.6,-,N/A,,Overcast,70,2013-02-07 08:55:00
3:15 AM,30.2,30.2,100,30.08,2.5,ENE,6.9,-,N/A,,Overcast,60,2013-02-07 09:15:00
3:35 AM,30.2,28.4,93,30.07,2.0,East,3.5,-,N/A,,Overcast,80,2013-02-07 09:35:00
4:15 AM,32.0,30.2,93,30.06,2.0,ESE,3.5,-,N/A,,Overcast,110,2013-02-07 10:15:00
4:35 AM,32.0,32.0,100,30.06,1.8,Calm,Calm,-,N/A,,Overcast,0,2013-02-07 10:35:00
4:55 AM,33.8,30.2,87,30.06,1.5,Calm,Calm,-,N/A,,Overcast,0,2013-02-07 10:55:00
5:15 AM,33.8,32.0,93,30.06,1.2,ESE,3.5,-,N/A,,Overcast,110,2013-02-07 11:15:00
5:35 AM,33.8,30.2,87,30.06,1.2,Calm,Calm,-,N/A,,Overcast,0,2013-02-07 11:35:00
5:55 AM,32.0,30.2,93,30.06,2.0,Calm,Calm,-,0.02,,Overcast,0,2013-02-07 11:55:00
6:15 AM,30.2,30.2,100,30.06,2.5,Calm,Calm,-,0.01,,Overcast,0,2013-02-07 12:15:00
6:35 AM,30.2,28.4,93,30.06,4.0,Calm,Calm,-,0.01,,Overcast,0,2013-02-07 12:35:00
6:55 AM,30.2,28.4,93,30.06,3.0,Calm,Calm,-,0.01,,Overcast,0,2013-02-07 12:55:00
7:15 AM,30.2,28.4,93,30.06,2.0,Calm,Calm,-,N/A,,Overcast,0,2013-02-07 13:15:00
7:35 AM,30.2,28.4,93,30.06,1.8,Calm,Calm,-,0.01,,Overcast,0,2013-02-07 13:35:00
7:55 AM,30.2,30.2,100,30.07,1.2,Calm,Calm,-,0.01,,Overcast,0,2013-02-07 13:55:00
8:15 AM,32.0,30.2,93,30.07,0.5,Calm,Calm,-,0.01,,Overcast,0,2013-02-07 14:15:00
8:35 AM,32.0,30.2,93,30.07,0.5,Calm,Calm,-,0.02,,Overcast,0,2013-02-07 14:35:00
8:55 AM,32.0,30.2,93,30.07,0.5,Calm,Calm,-,0.03,,Overcast,0,2013-02-07 14:55:00
9:15 AM,30.2,30.2,100,30.07,0.8,Calm,Calm,-,N/A,,Overcast,0,2013-02-07 15:15:00
9:35 AM,30.2,28.4,93,30.07,1.2,Calm,Calm,-,0.01,,Overcast,0,2013-02-07 15:35:00
9:55 AM,30.2,28.4,93,30.06,1.8,Calm,Calm,-,0.01,,Overcast,0,2013-02-07 15:55:00
10:15 AM,28.4,28.4,100,30.06,2.5,Calm,Calm,-,N/A,,Overcast,0,2013-02-07 16:15:00
10:35 AM,30.2,28.4,93,30.07,1.8,Calm,Calm,-,0.01,,Overcast,0,2013-02-07 16:35:00
10:55 AM,32.0,30.2,93,30.07,1.0,Calm,Calm,-,0.01,,Overcast,0,2013-02-07 16:55:00
11:15 AM,32.0,30.2,93,30.06,1.0,Calm,Calm,-,0.01,,Overcast,0,2013-02-07 17:15:00
11:35 AM,32.0,30.2,93,30.06,1.0,Calm,Calm,-,0.02,,Overcast,0,2013-02-07 17:35:00
11:55 AM,32.0,30.2,93,30.05,1.0,Calm,Calm,-,0.02,,Overcast,0,2013-02-07 17:55:00
12:15 PM,32.0,30.2,93,30.04,1.0,Calm,Calm,-,0.01,,Overcast,0,2013-02-07 18:15:00
12:35 PM,32.0,30.2,93,30.04,1.0,Calm,Calm,-,0.01,,Overcast,0,2013-02-07 18:35:00
12:55 PM,32.0,30.2,93,30.04,1.2,Calm,Calm,-,0.01,,Overcast,0,2013-02-07 18:55:00
1:15 PM,32.0,30.2,93,30.03,1.0,Calm,Calm,-,N/A,,Overcast,0,2013-02-07 19:15:00
1:35 PM,32.0,30.2,93,30.03,1.0,Calm,Calm,-,N/A,,Overcast,0,2013-02-07 19:35:00
1:55 PM,32.0,30.2,93,30.02,1.0,Calm,Calm,-,N/A,,Overcast,0,2013-02-07 19:55:00
2:15 PM,32.0,30.2,93,30.01,1.0,Calm,Calm,-,N/A,,Overcast,0,2013-02-07 20:15:00
2:35 PM,32.0,30.2,93,30.01,1.2,Calm,Calm,-,0.01,,Overcast,0,2013-02-07 20:35:00
2:55 PM,32.0,30.2,93,30.01,1.2,Calm,Calm,-,0.01,,Overcast,0,2013-02-07 20:55:00
3:15 PM,32.0,30.2,93,30.01,1.2,Calm,Calm,-,N/A,,Overcast,0,2013-02-07 21:15:00
3:35 PM,32.0,30.2,93,30.01,0.5,Calm,Calm,-,N/A,,Overcast,0,2013-02-07 21:35:00
3:55 PM,30.2,28.4,93,30.01,0.5,Calm,Calm,-,N/A,,Overcast,0,2013-02-07 21:55:00
4:15 PM,28.4,26.6,93,30.01,0.8,Calm,Calm,-,N/A,,Overcast,0,2013-02-07 22:15:00
4:35 PM,26.6,24.8,93,30.02,1.0,Calm,Calm,-,N/A,,Overcast,0,2013-02-07 22:35:00
4:55 PM,26.6,24.8,93,30.02,1.2,Calm,Calm,-,N/A,,Overcast,0,2013-02-07 22:55:00
5:15 PM,23.0,19.4,86,30.03,1.2,Calm,Calm,-,N/A,,Overcast,0,2013-02-07 23:15:00
5:35 PM,21.2,17.6,86,30.04,1.5,Calm,Calm,-,N/A,,Overcast,0,2013-02-07 23:35:00
5:55 PM,19.4,15.8,86,30.04,2.0,Calm,Calm,-,N/A,,Overcast,0,2013-02-07 23:55:00
6:15 PM,19.4,15.8,86,30.05,1.8,Calm,Calm,-,N/A,,Overcast,0,2013-02-08 00:15:00
6:35 PM,19.4,15.8,86,30.05,2.0,Calm,Calm,-,N/A,,Overcast,0,2013-02-08 00:35:00
6:55 PM,19.4,15.8,86,30.06,1.8,Calm,Calm,-,N/A,,Overcast,0,2013-02-08 00:55:00
7:15 PM,19.4,15.8,86,30.06,1.5,Calm,Calm,-,N/A,,Overcast,0,2013-02-08 01:15:00
7:35 PM,19.4,15.8,86,30.06,1.5,Calm,Calm,-,N/A,,Overcast,0,2013-02-08 01:35:00
7:55 PM,19.4,15.8,86,30.07,2.0,Calm,Calm,-,N/A,,Overcast,0,2013-02-08 01:55:00
8:15 PM,19.4,14.0,80,30.07,2.0,Calm,Calm,-,N/A,,Overcast,0,2013-02-08 02:15:00
8:35 PM,19.4,15.8,86,30.08,1.8,Calm,Calm,-,N/A,,Overcast,0,2013-02-08 02:35:00
8:55 PM,17.6,15.8,93,30.08,1.5,Calm,Calm,-,N/A,,Overcast,0,2013-02-08 02:55:00
9:15 PM,19.4,15.8,86,30.08,1.8,Calm,Calm,-,N/A,,Overcast,0,2013-02-08 03:15:00
9:35 PM,19.4,15.8,86,30.08,1.8,Calm,Calm,-,N/A,,Overcast,0,2013-02-08 03:35:00
9:55 PM,19.4,15.8,86,30.08,2.0,Calm,Calm,-,N/A,,Overcast,0,2013-02-08 03:55:00
10:15 PM,19.4,15.8,86,30.09,2.0,Calm,Calm,-,N/A,,Overcast,0,2013-02-08 04:15:00
10:35 PM,19.4,15.8,86,30.09,2.0,Calm,Calm,-,N/A,,Overcast,0,2013-02-08 04:35:00
10:55 PM,19.4,15.8,86,30.10,2.0,Calm,Calm,-,N/A,,Overcast,0,2013-02-08 04:55:00
11:15 PM,19.4,17.6,93,30.10,2.0,Calm,Calm,-,N/A,,Overcast,0,2013-02-08 05:15:00
11:35 PM,19.4,17.6,93,30.10,2.0,Calm,Calm,-,N/A,,Overcast,0,2013-02-08 05:35:00
11:55 PM,21.2,17.6,86,30.10,3.0,Calm,Calm,-,N/A,,Overcast,0,2013-02-08 05:55:00